Home > Weather > Málaga > Past weeks

Flag for Spain Past Weather in Málaga, Spain — Yesterday and Last 2 Weeks

Now
81 °F

Passing clouds.


Feels Like: 83 °F
Forecast: 70 / 97 °F
Wind: 7 mph from Southeast

Location: Malaga / Aeropuerto

Current Time: Jul 29, 2016 at 9:47:57 PM

Latest Report: Jul 29, 2016 at 9:00 PM


Visibility: N/A

Pressure: 29.98 "Hg

Humidity: 62%

Dew Point: 66 °F

Location of MálagaLocation

Past Weather in Málaga — Graph

°F

Málaga Temperature Yesterday

Maximum temperature yesterday: 86 °F (at 5:00 PM)
Minimum temperature yesterday: 68 °F (at 6:30 AM)
Average temperature yesterday: 77 °F

High & Low Weather Summary for the Past Weeks

 TemperatureHumidityPressure
High100 °F (Jul 22, 3:30 PM)94% (Jul 23, 7:00 AM)30.15 "Hg (Jul 23, 7:00 AM)
Low66 °F (Jul 17, 5:30 AM)14% (Jul 22, 3:30 PM)29.86 "Hg (Jul 21, 8:00 PM)
Average78 °F65%30.03 "Hg
* Reported Jul 14 8:00 PM — Jul 29 8:30 PM, Málaga, Weather by CustomWeather, © 2016

Note: Actual official high and low records may vary slightly from our data, if they occured in-between our weather recording intervals... More about our weather records

Advertising

Málaga Weather History for the Previous 24 Hours

Scroll right to see more
 ConditionsComfort  
Time TempWeatherWind HumidityBarometerVisibility
8:30 PM
Fri, Jul 29
81 °FPassing clouds.8 mph58%29.95 "HgN/A
8:00 PM82 °FPassing clouds.8 mph55%29.95 "HgN/A
7:30 PM82 °FPassing clouds.8 mph55%29.95 "HgN/A
7:00 PM82 °FPassing clouds.7 mph58%29.95 "HgN/A
6:30 PM82 °FPassing clouds.9 mph62%29.95 "HgN/A
6:00 PM82 °FPassing clouds.8 mph62%29.95 "HgN/A
5:30 PM82 °FPassing clouds.7 mph62%29.98 "HgN/A
5:00 PM82 °FPassing clouds.9 mph62%29.98 "HgN/A
4:30 PM82 °FPassing clouds.7 mph62%29.98 "HgN/A
4:00 PM82 °FPassing clouds.6 mph62%29.98 "HgN/A
3:30 PM82 °FPassing clouds.9 mph62%30.01 "HgN/A
3:00 PM82 °FPassing clouds.12 mph62%30.01 "HgN/A
2:30 PM82 °FPassing clouds.12 mph62%30.01 "HgN/A
2:00 PM82 °FPassing clouds.10 mph58%30.01 "HgN/A
1:30 PM82 °FPassing clouds.12 mph58%30.01 "HgN/A
1:00 PM82 °FPassing clouds.12 mph58%30.01 "HgN/A
12:30 PM82 °FPassing clouds.7 mph55%30.01 "HgN/A
12:00 PM82 °FPassing clouds.6 mph55%30.01 "HgN/A
11:30 AM82 °FPassing clouds.2 mph58%30.01 "HgN/A
11:00 AM81 °FPassing clouds.2 mph66%30.01 "HgN/A
10:30 AM81 °FPassing clouds.1 mph70%30.01 "HgN/A
10:00 AM79 °FPassing clouds.2 mph79%30.01 "Hg5 mi
9:30 AM77 °FPassing clouds.No wind79%30.01 "Hg5 mi
9:00 AM73 °FPassing clouds.1 mph83%30.01 "Hg5 mi
8:30 AM73 °FPassing clouds.2 mph83%30.01 "HgN/A
8:00 AM73 °FClear.1 mph83%29.98 "Hg10 mi
7:30 AM72 °FClear.No wind88%29.98 "Hg10 mi
7:00 AM72 °FClear.No wind83%29.98 "Hg10 mi
6:30 AM72 °FClear.3 mph83%29.98 "Hg10 mi
6:00 AM73 °FClear.1 mph78%29.95 "Hg10 mi
5:30 AM75 °FClear.3 mph78%29.98 "Hg10 mi
5:00 AM75 °FClear.9 mph78%29.98 "Hg10 mi
4:30 AM75 °FClear.10 mph78%29.98 "Hg10 mi
4:00 AM75 °FPassing clouds.9 mph78%29.98 "HgN/A
3:30 AM75 °FPassing clouds.7 mph78%29.98 "HgN/A
3:00 AM75 °FPassing clouds.3 mph83%29.98 "HgN/A
2:30 AM75 °FPassing clouds.No wind83%30.01 "HgN/A
2:00 AM77 °FPassing clouds.No wind83%30.01 "HgN/A
1:30 AM77 °FPassing clouds.1 mph83%30.04 "HgN/A
1:00 AM77 °FPassing clouds.1 mph79%30.04 "HgN/A
12:30 AM77 °FPassing clouds.5 mph79%30.04 "HgN/A
12:00 AM77 °FPassing clouds.5 mph79%30.04 "HgN/A
11:30 PM
Thu, Jul 28
77 °FPassing clouds.7 mph79%30.04 "HgN/A
11:00 PM77 °FPassing clouds.8 mph79%30.04 "HgN/A
10:30 PM79 °FPassing clouds.9 mph74%30.01 "HgN/A
10:00 PM79 °FPassing clouds.12 mph70%29.98 "HgN/A
9:30 PM79 °FPassing clouds.8 mph70%29.98 "HgN/A
9:00 PM81 °FPassing clouds.10 mph66%29.98 "HgN/A
Weather by CustomWeather, © 2016

See weather overviewHow to use our weather pages